Time,TemperatureF,DewpointF,PressureIn,WindDirection,WindDirectionDegrees,WindSpeedMPH,WindSpeedGustMPH,Humidity,HourlyPrecipIn,Conditions,Clouds,dailyrainin,SoftwareType,DateUTC
2013-03-26 00:05:00,36.1,2.8,29.88,NW,318,4.7,9.4,24,0.00,,,0.00,WSDL version 420,2013-03-26 05:05:00,
2013-03-26 00:11:00,36.1,2.8,29.88,North,356,2.8,8.5,24,0.00,,,0.00,WSDL version 420,2013-03-26 05:11:00,
2013-03-26 00:17:00,36.0,2.6,29.88,NW,325,3.8,7.4,24,0.00,,,0.00,WSDL version 420,2013-03-26 05:17:00,
2013-03-26 00:23:00,35.8,2.5,29.88,WNW,298,5.8,8.1,24,0.00,,,0.00,WSDL version 420,2013-03-26 05:23:00,
2013-03-26 00:29:00,35.7,2.4,29.88,South,183,3.4,7.8,24,0.00,,,0.00,WSDL version 420,2013-03-26 05:29:00,
2013-03-26 00:35:00,35.5,2.8,29.88,SE,138,4.9,9.8,25,0.00,,,0.00,WSDL version 420,2013-03-26 05:35:00,
2013-03-26 00:41:00,35.4,3.1,29.88,NW,325,4.0,8.5,25,0.00,,,0.00,WSDL version 420,2013-03-26 05:41:00,
2013-03-26 00:47:00,35.3,2.9,29.85,NNW,330,3.9,6.0,25,0.00,,,0.00,WSDL version 420,2013-03-26 05:47:00,
2013-03-26 00:53:00,35.2,2.9,29.85,West,281,4.2,7.4,25,0.00,,,0.00,WSDL version 420,2013-03-26 05:53:00,
2013-03-26 00:59:00,35.1,2.8,29.88,WNW,297,3.1,8.1,25,0.00,,,0.00,WSDL version 420,2013-03-26 05:59:00,
2013-03-26 01:05:00,35.1,2.8,29.88,West,278,4.7,5.8,25,0.00,,,0.00,WSDL version 420,2013-03-26 06:05:00,
2013-03-26 01:11:00,35.1,2.8,29.88,WNW,293,3.1,5.8,25,0.00,,,0.00,WSDL version 420,2013-03-26 06:11:00,
2013-03-26 01:17:00,34.9,2.6,29.88,NW,309,5.1,10.1,25,0.00,,,0.00,WSDL version 420,2013-03-26 06:17:00,
2013-03-26 01:23:00,34.9,2.6,29.88,NW,312,3.7,10.1,25,0.00,,,0.00,WSDL version 420,2013-03-26 06:23:00,
2013-03-26 01:29:00,34.9,2.6,29.88,WNW,302,3.7,7.4,25,0.00,,,0.00,WSDL version 420,2013-03-26 06:29:00,
2013-03-26 01:35:00,34.7,2.5,29.88,NW,324,3.4,7.6,25,0.00,,,0.00,WSDL version 420,2013-03-26 06:35:00,
2013-03-26 01:42:00,34.7,2.4,29.88,WNW,293,4.8,7.2,25,0.00,,,0.00,WSDL version 420,2013-03-26 06:42:00,
2013-03-26 01:48:00,34.5,2.3,29.88,NW,304,5.9,10.3,25,0.00,,,0.00,WSDL version 420,2013-03-26 06:48:00,
2013-03-26 01:54:00,34.5,2.3,29.88,NW,320,3.3,10.3,25,0.00,,,0.00,WSDL version 420,2013-03-26 06:54:00,
2013-03-26 02:00:00,34.4,2.2,29.88,SE,141,6.2,8.5,25,0.00,,,0.00,WSDL version 420,2013-03-26 07:00:00,
2013-03-26 02:06:00,34.3,2.1,29.88,NW,315,3.7,8.5,25,0.00,,,0.00,WSDL version 420,2013-03-26 07:06:00,
2013-03-26 02:12:00,34.2,2.0,29.88,NNW,338,3.9,8.7,25,0.00,,,0.00,WSDL version 420,2013-03-26 07:12:00,
2013-03-26 02:18:00,34.1,1.9,29.88,WNW,296,4.3,8.7,25,0.00,,,0.00,WSDL version 420,2013-03-26 07:18:00,
2013-03-26 02:24:00,34.0,1.9,29.88,NW,324,2.8,7.2,25,0.00,,,0.00,WSDL version 420,2013-03-26 07:24:00,
2013-03-26 02:30:00,33.8,1.7,29.88,NW,305,4.5,6.5,25,0.00,,,0.00,WSDL version 420,2013-03-26 07:30:00,
2013-03-26 02:36:00,33.6,1.5,29.88,NW,315,2.7,6.5,25,0.00,,,0.00,WSDL version 420,2013-03-26 07:36:00,
2013-03-26 02:42:00,33.3,1.3,29.88,NW,315,4.4,6.5,25,0.00,,,0.00,WSDL version 420,2013-03-26 07:42:00,
2013-03-26 02:48:00,33.1,1.1,29.88,NW,304,4.5,6.3,25,0.00,,,0.00,WSDL version 420,2013-03-26 07:48:00,
2013-03-26 02:54:00,33.0,1.0,29.88,SSE,167,3.7,6.0,25,0.00,,,0.00,WSDL version 420,2013-03-26 07:54:00,
2013-03-26 03:00:00,32.7,0.7,29.85,WNW,288,3.4,6.3,25,0.00,,,0.00,WSDL version 420,2013-03-26 08:00:00,
2013-03-26 03:06:00,32.6,0.6,29.85,WNW,293,3.9,7.6,25,0.00,,,0.00,WSDL version 420,2013-03-26 08:06:00,
2013-03-26 03:12:00,32.5,0.6,29.85,WNW,302,1.9,7.6,25,0.00,,,0.00,WSDL version 420,2013-03-26 08:12:00,
2013-03-26 03:18:00,32.3,0.9,29.85,NE,36,3.6,5.6,27,0.00,,,0.00,WSDL version 420,2013-03-26 08:18:00,
2013-03-26 03:24:00,32.2,1.7,29.85,North,350,3.0,5.6,28,0.00,,,0.00,WSDL version 420,2013-03-26 08:24:00,
2013-03-26 03:30:00,32.1,4.7,29.85,WNW,286,2.9,5.4,28,0.00,,,0.00,WSDL version 420,2013-03-26 08:30:00,
2013-03-26 03:37:00,31.9,5.5,29.85,WNW,293,2.6,5.4,28,0.00,,,0.00,WSDL version 420,2013-03-26 08:37:00,
2013-03-26 03:42:00,31.8,5.5,29.85,NW,315,2.7,4.9,28,0.00,,,0.00,WSDL version 420,2013-03-26 08:42:00,
2013-03-26 03:48:00,31.8,5.5,29.85,West,281,4.7,6.0,28,0.00,,,0.00,WSDL version 420,2013-03-26 08:48:00,
2013-03-26 03:54:00,31.8,6.3,29.85,West,266,3.8,6.0,30,0.00,,,0.00,WSDL version 420,2013-03-26 08:54:00,
2013-03-26 04:00:00,31.8,6.9,29.85,NW,323,3.4,8.1,30,0.00,,,0.00,WSDL version 420,2013-03-26 09:00:00,
2013-03-26 04:06:00,31.8,6.9,29.85,West,276,3.2,8.1,30,0.00,,,0.00,WSDL version 420,2013-03-26 09:06:00,
2013-03-26 04:12:00,32.0,7.0,29.85,WNW,285,4.3,6.3,30,0.00,,,0.00,WSDL version 420,2013-03-26 09:12:00,
2013-03-26 04:18:00,32.2,4.2,29.85,NW,323,4.9,6.3,30,0.00,,,0.00,WSDL version 420,2013-03-26 09:18:00,
2013-03-26 04:24:00,32.2,4.2,29.85,WNW,293,3.9,6.0,30,0.00,,,0.00,WSDL version 420,2013-03-26 09:24:00,
2013-03-26 04:30:00,32.4,4.4,29.85,NW,321,3.9,7.2,30,0.00,,,0.00,WSDL version 420,2013-03-26 09:30:00,
2013-03-26 04:36:00,32.5,4.5,29.85,West,270,4.3,7.8,30,0.00,,,0.00,WSDL version 420,2013-03-26 09:36:00,
2013-03-26 04:42:00,32.7,4.7,29.88,WNW,300,3.4,7.8,30,0.00,,,0.00,WSDL version 420,2013-03-26 09:42:00,
2013-03-26 04:48:00,32.7,4.7,29.88,North,360,3.8,6.0,30,0.00,,,0.00,WSDL version 420,2013-03-26 09:48:00,
2013-03-26 04:54:00,32.7,4.7,29.88,NW,326,3.2,5.4,30,0.00,,,0.00,WSDL version 420,2013-03-26 09:54:00,
2013-03-26 05:00:00,32.7,4.7,29.85,WNW,297,2.6,6.0,30,0.00,,,0.00,WSDL version 420,2013-03-26 10:00:00,
2013-03-26 05:06:00,32.9,4.8,29.85,WNW,285,3.3,4.7,30,0.00,,,0.00,WSDL version 420,2013-03-26 10:06:00,
2013-03-26 05:12:00,32.7,4.7,29.85,WNW,299,4.1,5.6,30,0.00,,,0.00,WSDL version 420,2013-03-26 10:12:00,
2013-03-26 05:18:00,32.7,4.8,29.85,NNW,341,2.8,5.6,31,0.00,,,0.00,WSDL version 420,2013-03-26 10:18:00,
2013-03-26 05:24:00,32.5,5.0,29.85,NW,309,3.6,5.4,31,0.00,,,0.00,WSDL version 420,2013-03-26 10:24:00,
2013-03-26 05:30:00,32.5,5.2,29.88,WNW,289,3.0,6.3,31,0.00,,,0.00,WSDL version 420,2013-03-26 10:30:00,
2013-03-26 05:36:00,32.5,5.2,29.88,NW,304,3.8,6.3,31,0.00,,,0.00,WSDL version 420,2013-03-26 10:36:00,
2013-03-26 05:42:00,32.5,5.2,29.88,West,276,2.3,5.6,31,0.00,,,0.00,WSDL version 420,2013-03-26 10:42:00,
2013-03-26 05:48:00,32.5,5.2,29.88,WNW,293,3.0,4.0,31,0.00,,,0.00,WSDL version 420,2013-03-26 10:48:00,
2013-03-26 05:54:00,32.4,5.1,29.88,NW,321,2.2,3.8,31,0.00,,,0.00,WSDL version 420,2013-03-26 10:54:00,
2013-03-26 06:00:00,32.3,5.0,29.88,WNW,297,4.2,5.8,31,0.00,,,0.00,WSDL version 420,2013-03-26 11:00:00,
2013-03-26 06:06:00,32.2,4.9,29.88,West,279,2.9,5.8,31,0.00,,,0.00,WSDL version 420,2013-03-26 11:06:00,
2013-03-26 06:12:00,32.0,7.7,29.88,West,263,2.8,4.9,31,0.00,,,0.00,WSDL version 420,2013-03-26 11:12:00,
2013-03-26 06:18:00,31.8,7.5,29.88,NW,320,4.3,6.0,31,0.00,,,0.00,WSDL version 420,2013-03-26 11:18:00,
2013-03-26 06:24:00,31.6,7.3,29.88,West,281,3.2,6.0,31,0.00,,,0.00,WSDL version 420,2013-03-26 11:24:00,
2013-03-26 06:30:00,31.5,7.2,29.91,WNW,293,2.9,4.3,31,0.00,,,0.00,WSDL version 420,2013-03-26 11:30:00,
2013-03-26 06:37:00,31.6,7.4,29.91,NW,320,2.9,4.3,32,0.00,,,0.00,WSDL version 420,2013-03-26 11:37:00,
2013-03-26 06:42:00,31.6,7.8,29.91,WNW,302,2.6,4.9,32,0.00,,,0.00,WSDL version 420,2013-03-26 11:42:00,
2013-03-26 06:48:00,31.6,8.0,29.91,WNW,300,2.5,5.6,32,0.00,,,0.00,WSDL version 420,2013-03-26 11:48:00,
2013-03-26 06:54:00,31.5,7.8,29.91,WNW,302,3.4,5.8,32,0.00,,,0.00,WSDL version 420,2013-03-26 11:54:00,
2013-03-26 07:00:00,31.4,7.7,29.91,WNW,293,2.6,5.8,32,0.00,,,0.00,WSDL version 420,2013-03-26 12:00:00,
2013-03-26 07:06:00,31.1,7.5,29.91,WNW,300,3.5,6.5,32,0.00,,,0.00,WSDL version 420,2013-03-26 12:06:00,
2013-03-26 07:12:00,31.1,8.1,29.91,NW,304,3.1,6.5,33,0.00,,,0.00,WSDL version 420,2013-03-26 12:12:00,
2013-03-26 07:18:00,31.1,8.1,29.91,WNW,287,3.3,4.9,33,0.00,,,0.00,WSDL version 420,2013-03-26 12:18:00,
2013-03-26 07:24:00,31.1,8.2,29.91,NW,319,2.4,4.3,33,0.00,,,0.00,WSDL version 420,2013-03-26 12:24:00,
2013-03-26 07:30:00,31.1,8.1,29.91,NW,315,2.6,3.8,33,0.00,,,0.00,WSDL version 420,2013-03-26 12:30:00,
2013-03-26 07:36:00,31.1,8.6,29.91,NW,315,2.6,3.6,34,0.00,,,0.00,WSDL version 420,2013-03-26 12:36:00,
2013-03-26 07:42:00,31.1,8.7,29.91,WNW,293,2.4,4.7,34,0.00,,,0.00,WSDL version 420,2013-03-26 12:42:00,
2013-03-26 07:48:00,31.3,8.8,29.91,NW,304,2.9,4.3,34,0.00,,,0.00,WSDL version 420,2013-03-26 12:48:00,
2013-03-26 07:54:00,31.6,9.1,29.91,WNW,296,2.7,5.6,34,0.00,,,0.00,WSDL version 420,2013-03-26 12:54:00,
2013-03-26 08:00:00,31.9,9.4,29.91,West,276,3.6,5.6,34,0.00,,,0.00,WSDL version 420,2013-03-26 13:00:00,
2013-03-26 08:06:00,32.1,8.0,29.91,WNW,296,2.9,5.6,35,0.00,,,0.00,WSDL version 420,2013-03-26 13:06:00,
2013-03-26 08:12:00,32.4,7.2,29.91,WNW,300,2.6,4.5,34,0.00,,,0.00,WSDL version 420,2013-03-26 13:12:00,
2013-03-26 08:18:00,32.6,7.4,29.91,NW,309,3.2,4.5,34,0.00,,,0.00,WSDL version 420,2013-03-26 13:18:00,
2013-03-26 08:24:00,32.8,7.5,29.91,NW,315,3.0,5.4,34,0.00,,,0.00,WSDL version 420,2013-03-26 13:24:00,
2013-03-26 08:30:00,33.2,7.7,29.94,WNW,300,3.9,6.3,34,0.00,,,0.00,WSDL version 420,2013-03-26 13:30:00,
2013-03-26 08:36:00,33.5,7.5,29.94,NW,315,3.5,6.5,33,0.00,,,0.00,WSDL version 420,2013-03-26 13:36:00,
2013-03-26 08:42:00,33.9,7.5,29.94,North,9,3.4,7.2,32,0.00,,,0.00,WSDL version 420,2013-03-26 13:42:00,
2013-03-26 08:48:00,34.2,7.4,29.94,NW,309,2.2,6.3,32,0.00,,,0.00,WSDL version 420,2013-03-26 13:48:00,
2013-03-26 08:54:00,34.6,7.5,29.94,WNW,298,4.4,6.5,31,0.00,,,0.00,WSDL version 420,2013-03-26 13:54:00,
2013-03-26 09:00:00,35.1,7.5,29.94,WNW,285,3.3,6.5,31,0.00,,,0.00,WSDL version 420,2013-03-26 14:00:00,
2013-03-26 09:07:00,35.5,7.8,29.94,NW,308,4.0,5.6,31,0.00,,,0.00,WSDL version 420,2013-03-26 14:07:00,
2013-03-26 09:12:00,35.6,7.2,29.94,WNW,302,3.5,5.6,30,0.00,,,0.00,WSDL version 420,2013-03-26 14:12:00,
2013-03-26 09:18:00,36.1,7.7,29.94,NNW,345,4.1,10.3,30,0.00,,,0.00,WSDL version 420,2013-03-26 14:18:00,
2013-03-26 09:24:00,36.5,8.0,29.94,North,349,3.7,10.3,30,0.00,,,0.00,WSDL version 420,2013-03-26 14:24:00,
2013-03-26 09:30:00,36.9,8.4,29.94,North,354,2.7,5.6,30,0.00,,,0.00,WSDL version 420,2013-03-26 14:30:00,
2013-03-26 09:36:00,37.4,8.2,29.94,NW,304,3.7,6.3,29,0.00,,,0.00,WSDL version 420,2013-03-26 14:36:00,
2013-03-26 09:42:00,37.7,8.3,29.94,NW,324,3.9,6.3,29,0.00,,,0.00,WSDL version 420,2013-03-26 14:42:00,
2013-03-26 09:48:00,37.9,8.4,29.94,NW,315,3.4,6.3,29,0.00,,,0.00,WSDL version 420,2013-03-26 14:48:00,
2013-03-26 09:54:00,38.2,8.8,29.94,North,360,3.4,9.8,29,0.00,,,0.00,WSDL version 420,2013-03-26 14:54:00,
2013-03-26 10:00:00,38.5,9.0,29.94,NNW,338,3.0,9.8,29,0.00,,,0.00,WSDL version 420,2013-03-26 15:00:00,
2013-03-26 10:06:00,38.7,9.2,29.94,North,356,3.1,8.7,29,0.00,,,0.00,WSDL version 420,2013-03-26 15:06:00,
2013-03-26 10:12:00,39.2,7.2,29.94,NW,323,3.7,8.7,26,0.00,,,0.00,WSDL version 420,2013-03-26 15:12:00,
2013-03-26 10:18:00,39.2,7.2,29.94,North,360,3.1,5.4,26,0.00,,,0.00,WSDL version 420,2013-03-26 15:18:00,
2013-03-26 10:24:00,39.9,7.7,29.94,NNE,23,4.4,8.7,26,0.00,,,0.00,WSDL version 420,2013-03-26 15:24:00,
2013-03-26 10:30:00,40.4,8.2,29.97,NE,49,3.1,8.7,26,0.00,,,0.00,WSDL version 420,2013-03-26 15:30:00,
2013-03-26 10:36:00,41.1,8.8,29.97,North,349,3.1,7.8,26,0.00,,,0.00,WSDL version 420,2013-03-26 15:36:00,
2013-03-26 10:42:00,41.3,9.0,29.97,North,360,3.4,7.8,26,0.00,,,0.00,WSDL version 420,2013-03-26 15:42:00,
2013-03-26 10:48:00,42.0,9.6,29.97,North,358,3.1,6.0,26,0.00,,,0.00,WSDL version 420,2013-03-26 15:48:00,
2013-03-26 10:54:00,42.8,9.7,29.97,North,360,2.9,6.0,25,0.00,,,0.00,WSDL version 420,2013-03-26 15:54:00,
2013-03-26 11:00:00,42.7,8.1,29.97,NW,304,3.2,6.5,23,0.00,,,0.00,WSDL version 420,2013-03-26 16:00:00,
2013-03-26 11:06:00,41.4,6.4,29.97,NW,304,3.9,8.5,23,0.00,,,0.00,WSDL version 420,2013-03-26 16:06:00,
2013-03-26 11:12:00,42.4,7.2,29.97,NNW,341,3.5,8.5,23,0.00,,,0.00,WSDL version 420,2013-03-26 16:12:00,
2013-03-26 11:18:00,43.0,7.8,29.97,North,356,3.6,6.3,23,0.00,,,0.00,WSDL version 420,2013-03-26 16:18:00,
2013-03-26 11:24:00,43.0,7.7,29.97,NNW,332,4.3,8.1,23,0.00,,,0.00,WSDL version 420,2013-03-26 16:24:00,
2013-03-26 11:30:00,43.7,8.3,29.97,WNW,295,3.0,8.1,23,0.00,,,0.00,WSDL version 420,2013-03-26 16:30:00,
2013-03-26 11:36:00,44.7,8.3,29.97,WNW,300,6.0,8.1,23,0.00,,,0.00,WSDL version 420,2013-03-26 16:36:00,
2013-03-26 11:42:00,43.5,8.2,29.97,NNE,23,3.0,8.5,23,0.00,,,0.00,WSDL version 420,2013-03-26 16:42:00,
2013-03-26 11:48:00,43.9,8.5,29.97,NW,320,3.8,6.9,23,0.00,,,0.00,WSDL version 420,2013-03-26 16:48:00,
2013-03-26 11:54:00,43.6,8.2,29.97,WSW,248,2.5,6.9,23,0.00,,,0.00,WSDL version 420,2013-03-26 16:54:00,
2013-03-26 12:00:00,43.4,8.1,29.97,NNW,331,3.9,5.8,23,0.00,,,0.00,WSDL version 420,2013-03-26 17:00:00,
2013-03-26 12:06:00,42.8,7.6,29.97,North,353,4.0,6.5,23,0.00,,,0.00,WSDL version 420,2013-03-26 17:06:00,
2013-03-26 12:12:00,42.7,7.0,29.97,West,276,6.0,8.5,20,0.00,,,0.00,WSDL version 420,2013-03-26 17:12:00,
2013-03-26 12:18:00,42.8,5.0,29.97,NW,304,4.4,8.5,23,0.00,,,0.00,WSDL version 420,2013-03-26 17:18:00,
2013-03-26 12:24:00,42.8,7.0,29.97,WNW,293,3.2,7.8,23,0.00,,,0.00,WSDL version 420,2013-03-26 17:24:00,
2013-03-26 12:30:00,42.7,5.6,29.97,NW,324,3.2,7.2,21,0.00,,,0.00,WSDL version 420,2013-03-26 17:30:00,
2013-03-26 12:37:00,42.5,7.3,29.97,NNE,14,2.8,7.2,23,0.00,,,0.00,WSDL version 420,2013-03-26 17:37:00,
2013-03-26 12:42:00,43.1,7.8,29.97,West,281,1.6,5.4,23,0.00,,,0.00,WSDL version 420,2013-03-26 17:42:00,
2013-03-26 12:48:00,44.0,8.4,29.97,East,84,3.2,6.0,22,0.00,,,0.00,WSDL version 420,2013-03-26 17:48:00,
2013-03-26 12:54:00,44.7,6.8,29.97,NNW,331,4.8,7.4,20,0.00,,,0.00,WSDL version 420,2013-03-26 17:54:00,
2013-03-26 13:00:00,44.2,5.7,29.97,NW,326,2.8,7.4,20,0.00,,,0.00,WSDL version 420,2013-03-26 18:00:00,
2013-03-26 13:07:00,44.1,5.6,29.97,North,10,5.2,7.4,20,0.00,,,0.00,WSDL version 420,2013-03-26 18:07:00,
2013-03-26 13:12:00,44.1,5.6,30.00,North,349,3.7,7.4,20,0.00,,,0.00,WSDL version 420,2013-03-26 18:12:00,
2013-03-26 13:18:00,44.6,6.0,30.00,NW,313,3.2,4.9,20,0.00,,,0.00,WSDL version 420,2013-03-26 18:18:00,
2013-03-26 13:24:00,44.6,6.0,30.00,NW,326,2.8,6.0,20,0.00,,,0.00,WSDL version 420,2013-03-26 18:24:00,
2013-03-26 13:30:00,44.6,6.0,29.97,NNW,330,3.2,7.6,20,0.00,,,0.00,WSDL version 420,2013-03-26 18:30:00,
2013-03-26 13:36:00,44.5,5.9,29.97,North,3,2.3,7.6,20,0.00,,,0.00,WSDL version 420,2013-03-26 18:36:00,
2013-03-26 13:42:00,44.8,6.1,29.97,North,4,3.7,5.8,20,0.00,,,0.00,WSDL version 420,2013-03-26 18:42:00,
2013-03-26 13:48:00,44.6,6.0,29.97,West,280,4.6,7.4,20,0.00,,,0.00,WSDL version 420,2013-03-26 18:48:00,
2013-03-26 13:54:00,44.3,5.7,29.97,NW,311,4.9,7.4,20,0.00,,,0.00,WSDL version 420,2013-03-26 18:54:00,
2013-03-26 14:00:00,44.9,6.2,29.97,WNW,293,4.0,7.6,20,0.00,,,0.00,WSDL version 420,2013-03-26 19:00:00,
2013-03-26 14:06:00,45.2,6.5,29.97,North,356,4.7,7.6,20,0.00,,,0.00,WSDL version 420,2013-03-26 19:06:00,
2013-03-26 14:12:00,45.6,6.8,29.97,WSW,255,4.9,7.6,20,0.00,,,0.00,WSDL version 420,2013-03-26 19:12:00,
2013-03-26 14:18:00,46.3,6.9,29.97,NW,326,3.5,6.5,19,0.00,,,0.00,WSDL version 420,2013-03-26 19:18:00,
2013-03-26 14:24:00,46.7,6.6,29.97,WNW,289,3.1,6.0,19,0.00,,,0.00,WSDL version 420,2013-03-26 19:24:00,
2013-03-26 14:30:00,46.6,6.5,29.97,NNE,23,2.5,5.8,19,0.00,,,0.00,WSDL version 420,2013-03-26 19:30:00,
2013-03-26 14:37:00,46.5,6.4,29.97,NW,304,4.5,8.1,19,0.00,,,0.00,WSDL version 420,2013-03-26 19:37:00,
2013-03-26 14:42:00,47.3,7.1,29.97,SE,135,4.3,8.1,19,0.00,,,0.00,WSDL version 420,2013-03-26 19:42:00,
2013-03-26 14:48:00,47.8,7.5,29.97,WNW,289,4.9,10.5,19,0.00,,,0.00,WSDL version 420,2013-03-26 19:48:00,
2013-03-26 14:54:00,47.7,7.4,29.97,West,281,3.9,10.5,19,0.00,,,0.00,WSDL version 420,2013-03-26 19:54:00,
2013-03-26 15:00:00,47.8,7.5,29.97,North,360,4.9,5.6,19,0.00,,,0.00,WSDL version 420,2013-03-26 20:00:00,
2013-03-26 15:06:00,47.6,7.4,29.97,WNW,285,1.9,5.6,19,0.00,,,0.00,WSDL version 420,2013-03-26 20:06:00,
2013-03-26 15:13:00,48.5,8.1,29.97,NW,315,4.1,6.7,19,0.00,,,0.00,WSDL version 420,2013-03-26 20:13:00,
2013-03-26 15:18:00,49.3,8.8,29.97,West,263,6.3,6.7,19,0.00,,,0.00,WSDL version 420,2013-03-26 20:18:00,
2013-03-26 15:24:00,49.6,9.0,29.97,West,281,4.0,9.8,19,0.00,,,0.00,WSDL version 420,2013-03-26 20:24:00,
2013-03-26 15:30:00,49.9,9.3,29.97,WNW,297,4.9,9.8,19,0.00,,,0.00,WSDL version 420,2013-03-26 20:30:00,
2013-03-26 15:36:00,49.9,9.3,29.97,North,360,2.3,6.3,19,0.00,,,0.00,WSDL version 420,2013-03-26 20:36:00,
2013-03-26 15:42:00,50.6,9.8,29.97,North,360,2.2,5.8,19,0.00,,,0.00,WSDL version 420,2013-03-26 20:42:00,
2013-03-26 15:48:00,50.8,10.1,29.97,West,281,3.7,6.5,19,0.00,,,0.00,WSDL version 420,2013-03-26 20:48:00,
2013-03-26 15:54:00,48.7,8.3,29.97,North,360,2.2,7.6,19,0.00,,,0.00,WSDL version 420,2013-03-26 20:54:00,
2013-03-26 16:00:00,47.6,7.4,29.97,North,349,2.0,4.9,19,0.00,,,0.00,WSDL version 420,2013-03-26 21:00:00,
2013-03-26 16:06:00,47.4,7.2,29.97,NNE,15,1.6,4.7,19,0.00,,,0.00,WSDL version 420,2013-03-26 21:06:00,
2013-03-26 16:12:00,48.1,7.8,29.97,NW,319,3.2,6.3,19,0.00,,,0.00,WSDL version 420,2013-03-26 21:12:00,
2013-03-26 16:18:00,46.9,6.8,29.97,NW,304,2.9,6.3,19,0.00,,,0.00,WSDL version 420,2013-03-26 21:18:00,
2013-03-26 16:24:00,46.2,7.1,29.97,NW,306,1.7,4.9,20,0.00,,,0.00,WSDL version 420,2013-03-26 21:24:00,
2013-03-26 16:30:00,46.5,6.5,29.97,NW,324,3.0,6.0,19,0.00,,,0.00,WSDL version 420,2013-03-26 21:30:00,
2013-03-26 16:37:00,46.5,7.0,29.97,NW,315,2.8,6.0,19,0.00,,,0.00,WSDL version 420,2013-03-26 21:37:00,
2013-03-26 16:42:00,48.0,7.7,29.97,NW,315,1.3,4.7,19,0.00,,,0.00,WSDL version 420,2013-03-26 21:42:00,
2013-03-26 16:48:00,47.6,7.4,29.97,NNW,328,3.1,5.4,19,0.00,,,0.00,WSDL version 420,2013-03-26 21:48:00,
2013-03-26 16:54:00,48.2,7.9,29.97,NNW,338,1.7,5.8,19,0.00,,,0.00,WSDL version 420,2013-03-26 21:54:00,
2013-03-26 17:00:00,49.7,9.1,29.97,NNW,338,2.9,7.8,19,0.00,,,0.00,WSDL version 420,2013-03-26 22:00:00,
2013-03-26 17:06:00,50.2,9.5,29.97,West,270,4.9,8.1,19,0.00,,,0.00,WSDL version 420,2013-03-26 22:06:00,
2013-03-26 17:12:00,49.0,8.5,29.97,West,281,4.7,8.7,19,0.00,,,0.00,WSDL version 420,2013-03-26 22:12:00,
2013-03-26 17:18:00,47.2,7.0,29.97,WNW,283,3.2,10.1,19,0.00,,,0.00,WSDL version 420,2013-03-26 22:18:00,
2013-03-26 17:24:00,46.4,6.6,29.97,NW,306,2.3,6.0,20,0.00,,,0.00,WSDL version 420,2013-03-26 22:24:00,
2013-03-26 17:30:00,45.9,7.1,29.94,West,278,3.7,9.8,20,0.00,,,0.00,WSDL version 420,2013-03-26 22:30:00,
2013-03-26 17:36:00,46.9,6.9,29.94,NW,315,4.3,6.5,19,0.00,,,0.00,WSDL version 420,2013-03-26 22:36:00,
2013-03-26 17:42:00,48.2,7.9,29.94,NW,326,3.0,5.8,19,0.00,,,0.00,WSDL version 420,2013-03-26 22:42:00,
2013-03-26 17:49:00,48.5,8.1,29.94,North,6,3.0,5.8,19,0.00,,,0.00,WSDL version 420,2013-03-26 22:49:00,
2013-03-26 17:54:00,48.2,7.9,29.94,West,270,5.1,7.4,19,0.00,,,0.00,WSDL version 420,2013-03-26 22:54:00,
2013-03-26 18:00:00,47.0,6.8,29.97,West,262,3.0,7.4,19,0.00,,,0.00,WSDL version 420,2013-03-26 23:00:00,
2013-03-26 18:06:00,46.3,6.9,29.97,West,266,4.2,5.4,19,0.00,,,0.00,WSDL version 420,2013-03-26 23:06:00,
2013-03-26 18:12:00,47.1,6.9,29.97,WNW,287,3.4,6.0,19,0.00,,,0.00,WSDL version 420,2013-03-26 23:12:00,
2013-03-26 18:19:00,48.0,7.7,29.97,NW,304,4.9,6.0,19,0.00,,,0.00,WSDL version 420,2013-03-26 23:19:00,
2013-03-26 18:25:00,48.7,8.3,29.97,WNW,293,4.0,5.6,19,0.00,,,0.00,WSDL version 420,2013-03-26 23:25:00,
2013-03-26 18:30:00,48.8,8.4,29.97,West,279,2.6,4.7,19,0.00,,,0.00,WSDL version 420,2013-03-26 23:30:00,
2013-03-26 18:36:00,49.3,8.7,29.97,North,351,1.2,4.0,19,0.00,,,0.00,WSDL version 420,2013-03-26 23:36:00,
2013-03-26 18:42:00,49.3,8.8,29.97,WNW,289,3.3,5.6,19,0.00,,,0.00,WSDL version 420,2013-03-26 23:42:00,
2013-03-26 18:48:00,48.0,7.7,29.97,WNW,289,2.5,5.6,19,0.00,,,0.00,WSDL version 420,2013-03-26 23:48:00,
2013-03-26 18:54:00,46.8,6.7,29.97,WNW,293,2.5,4.3,19,0.00,,,0.00,WSDL version 420,2013-03-26 23:54:00,
2013-03-26 19:00:00,45.8,7.0,29.97,West,261,3.5,4.3,20,0.00,,,0.00,WSDL version 420,2013-03-27 00:00:00,
2013-03-26 19:06:00,44.8,6.2,29.97,West,264,3.6,5.4,20,0.00,,,0.00,WSDL version 420,2013-03-27 00:06:00,
2013-03-26 19:12:00,44.2,5.7,29.97,West,263,3.4,5.6,20,0.00,,,0.00,WSDL version 420,2013-03-27 00:12:00,
2013-03-26 19:18:00,43.8,5.3,29.97,West,270,1.0,5.6,20,0.00,,,0.00,WSDL version 420,2013-03-27 00:18:00,
2013-03-26 19:24:00,43.3,4.9,29.97,West,270,1.0,3.1,20,0.00,,,0.00,WSDL version 420,2013-03-27 00:24:00,
2013-03-26 19:30:00,42.9,4.7,29.97,West,261,1.3,2.0,21,0.00,,,0.00,WSDL version 420,2013-03-27 00:30:00,
2013-03-26 19:36:00,42.4,5.2,29.97,West,270,0.0,2.0,21,0.00,,,0.00,WSDL version 420,2013-03-27 00:36:00,
2013-03-26 19:43:00,42.4,5.2,29.97,West,270,0.0,0.9,21,0.00,,,0.00,WSDL version 420,2013-03-27 00:43:00,
2013-03-26 19:48:00,42.4,5.2,29.97,South,180,1.0,2.0,21,0.00,,,0.00,WSDL version 420,2013-03-27 00:48:00,
2013-03-26 19:54:00,42.3,5.1,29.97,South,180,0.9,2.0,21,0.00,,,0.00,WSDL version 420,2013-03-27 00:54:00,
2013-03-26 20:00:00,42.2,5.0,29.97,South,180,1.0,1.6,21,0.00,,,0.00,WSDL version 420,2013-03-27 01:00:00,
2013-03-26 20:07:00,42.0,4.9,29.97,South,180,0.0,1.3,21,0.00,,,0.00,WSDL version 420,2013-03-27 01:07:00,
2013-03-26 20:12:00,41.6,4.5,29.97,SSE,163,0.8,2.0,21,0.00,,,0.00,WSDL version 420,2013-03-27 01:12:00,
2013-03-26 20:18:00,41.3,4.3,29.97,SSE,158,1.2,2.0,21,0.00,,,0.00,WSDL version 420,2013-03-27 01:18:00,
2013-03-26 20:24:00,41.1,4.1,29.97,SSE,158,1.1,1.6,21,0.00,,,0.00,WSDL version 420,2013-03-27 01:24:00,
2013-03-26 20:30:00,40.7,3.8,29.97,SSE,158,1.0,1.3,21,0.00,,,0.00,WSDL version 420,2013-03-27 01:30:00,
2013-03-26 20:38:00,40.8,3.9,29.97,SSE,158,0.0,1.1,21,0.00,,,0.00,WSDL version 420,2013-03-27 01:38:00,
2013-03-26 20:44:00,40.8,3.8,29.97,SSE,158,0.0,0.0,21,0.00,,,0.00,WSDL version 420,2013-03-27 01:44:00,
2013-03-26 20:50:00,40.6,3.7,29.97,SSE,158,1.4,2.0,21,0.00,,,0.00,WSDL version 420,2013-03-27 01:50:00,
2013-03-26 20:56:00,40.4,3.5,29.97,SSE,158,1.1,2.0,21,0.00,,,0.00,WSDL version 420,2013-03-27 01:56:00,
2013-03-26 21:02:00,40.0,3.2,29.97,SSE,158,0.0,1.6,21,0.00,,,0.00,WSDL version 420,2013-03-27 02:02:00,
2013-03-26 21:08:00,39.9,3.1,29.97,SSE,158,1.8,2.5,21,0.00,,,0.00,WSDL version 420,2013-03-27 02:08:00,
2013-03-26 21:14:00,39.7,3.0,29.97,SSE,158,1.5,2.5,21,0.00,,,0.00,WSDL version 420,2013-03-27 02:14:00,
2013-03-26 21:20:00,39.7,2.9,29.97,SSE,158,2.2,2.5,21,0.00,,,0.00,WSDL version 420,2013-03-27 02:20:00,
2013-03-26 21:26:00,39.0,2.4,29.97,SSE,158,1.3,2.5,21,0.00,,,0.00,WSDL version 420,2013-03-27 02:26:00,
2013-03-26 21:32:00,38.7,2.1,29.97,SSE,158,1.5,2.0,21,0.00,,,0.00,WSDL version 420,2013-03-27 02:32:00,
2013-03-26 21:38:00,38.3,1.8,29.97,SSE,158,1.6,2.5,21,0.00,,,0.00,WSDL version 420,2013-03-27 02:38:00,
2013-03-26 21:44:00,38.4,1.9,29.97,SSE,158,0.9,2.5,21,0.00,,,0.00,WSDL version 420,2013-03-27 02:44:00,
2013-03-26 21:50:00,38.4,1.8,29.97,SSE,158,1.6,2.2,21,0.00,,,0.00,WSDL version 420,2013-03-27 02:50:00,
2013-03-26 21:56:00,38.5,1.9,29.97,SSE,158,1.8,2.5,21,0.00,,,0.00,WSDL version 420,2013-03-27 02:56:00,
2013-03-26 22:02:00,38.0,1.5,29.97,SSE,158,0.9,2.7,21,0.00,,,0.00,WSDL version 420,2013-03-27 03:02:00,
2013-03-26 22:08:00,37.5,1.1,29.97,SSE,158,0.6,2.5,21,0.00,,,0.00,WSDL version 420,2013-03-27 03:08:00,
2013-03-26 22:14:00,37.4,1.2,29.97,SSE,158,1.0,2.2,22,0.00,,,0.00,WSDL version 420,2013-03-27 03:14:00,
2013-03-26 22:20:00,37.3,1.3,29.97,SSE,158,1.3,2.2,21,0.00,,,0.00,WSDL version 420,2013-03-27 03:20:00,
2013-03-26 22:26:00,37.2,1.5,29.97,SSE,158,1.1,2.0,22,0.00,,,0.00,WSDL version 420,2013-03-27 03:26:00,
2013-03-26 22:32:00,36.9,1.5,29.97,SSE,158,0.0,1.6,22,0.00,,,0.00,WSDL version 420,2013-03-27 03:32:00,
2013-03-26 22:38:00,37.0,1.7,29.97,SSE,158,0.0,0.0,22,0.00,,,0.00,WSDL version 420,2013-03-27 03:38:00,
2013-03-26 22:44:00,36.8,1.5,29.97,SSE,158,0.0,0.0,22,0.00,,,0.00,WSDL version 420,2013-03-27 03:44:00,
2013-03-26 22:50:00,36.7,1.4,29.97,SSE,158,0.9,2.2,22,0.00,,,0.00,WSDL version 420,2013-03-27 03:50:00,
2013-03-26 22:56:00,36.3,1.7,29.97,SSE,158,0.0,2.2,24,0.00,,,0.00,WSDL version 420,2013-03-27 03:56:00,
2013-03-26 23:02:00,36.3,3.0,29.97,SSE,158,0.0,0.0,24,0.00,,,0.00,WSDL version 420,2013-03-27 04:02:00,
2013-03-26 23:05:00,36.4,3.0,29.97,SSE,158,0.0,0.0,24,0.00,,,0.00,WSDL version 420,2013-03-27 04:05:00,
2013-03-26 23:08:00,36.4,3.0,29.97,SSE,158,0.0,0.0,24,0.00,,,0.00,WSDL version 420,2013-03-27 04:08:00,
2013-03-26 23:16:00,36.1,2.8,29.97,SSE,158,0.0,0.0,24,0.00,,,0.00,WSDL version 420,2013-03-27 04:16:00,
2013-03-26 23:22:00,35.9,2.6,29.97,SSE,158,0.0,0.0,24,0.00,,,0.00,WSDL version 420,2013-03-27 04:22:00,
2013-03-26 23:28:00,35.8,2.5,29.97,SSE,158,0.0,0.0,24,0.00,,,0.00,WSDL version 420,2013-03-27 04:28:00,
2013-03-26 23:34:00,35.5,2.6,29.97,SSE,158,0.0,0.0,25,0.00,,,0.00,WSDL version 420,2013-03-27 04:34:00,
2013-03-26 23:40:00,35.5,2.6,29.97,SSE,158,0.0,0.0,25,0.00,,,0.00,WSDL version 420,2013-03-27 04:40:00,
2013-03-26 23:46:00,35.1,2.8,30.00,SSE,158,0.0,0.9,25,0.00,,,0.00,WSDL version 420,2013-03-27 04:46:00,
2013-03-26 23:52:00,34.9,2.6,30.00,SSE,158,0.0,0.9,25,0.00,,,0.00,WSDL version 420,2013-03-27 04:52:00,
2013-03-26 23:58:00,34.7,2.4,30.00,SSE,158,0.0,0.9,25,0.00,,,0.00,WSDL version 420,2013-03-27 04:58:00,